Ana Sayfa
METAR-TAF:

METAR-TAF

Havaalanları :

Ardmore Downtown Executive Airport

Ardmore, Oklahoma, Amerika Birleşik Devletleri

Enlem: 34-08-49N, Boylam: 097-07-21W, yükseklik: 257 m

Güncel hava durumu gözlemi

Rapor saat 10:55 UTC de 8 dakika önce yapıldı.
Rüzgar doğu/kuzeydoğudan 3 kt
Sıcaklık 6°C
Nem 93%
Basınç 1018 hPa
Görüş mesafesi: 11.3 km
400 ft yükseklikte çok bulutlu

METAR: K1F0 051055Z AUTO 07003KT 7SM OVC004 06/05 A3007 RMK AO2

Saat: 06:03 (11:03 UTC)


TAF: eksik

4.000'den fazla havaalanı için hava durumu gözlemleri ve tahminleri (METAR ve TAF raporları).

Kullanılabilir istasyonlar harita üzerinde sarı ve kırmızı noktalarla gösterilir.

İstasyonun adını görmek için fareyi noktanın üzerinde gezdirin.

Sonrasında hava gözlem ve tahminlerini görmek için tıklayın.

Haritayı değiştirmek için: yaklaştırmak için siyah artı işaretli yeşil düğmeye ve uzaklaştırmak için de eksi işaretli düğmeye hızla tıklayın; bitişik haritalar için yeşil okları kullanın.


METAR-TAF: